{"data":{"norad_id":44868,"epoch":"2026-05-25T05:02:38.473728Z","epoch_age_seconds":46997,"freshness":"FRESH","line1":"1 44868U 19091A   26145.21016752  .00000000  00000+0  00000+0 0  9990","line2":"2 44868   0.0135 294.2834 0000115 193.4324 340.7511  1.00269590 23789","mean_motion":1.0026959,"eccentricity":1.15e-5,"inclination_deg":0.0135,"raan_deg":294.2834,"arg_perigee_deg":193.4324,"mean_anomaly_deg":340.7511,"bstar":0,"rev_number":2378,"period_min":1436.1283416039,"perigee_km":35786.725409103,"apogee_km":35787.695212091,"semimajor_km":42165.347310597,"source":"CELESTRAK","updated_at":"2026-05-25T13:38:14.090914Z"}}